This is the latest recevied weather packets stored in our database for station/object OK1OBR-13. If no packets are shown the sender has not sent any weather packets the latest 1 day(s).
| Time | Temp. | Humidity | Pressure | Rain* | Wind** | Luminosity | Snow |
|---|---|---|---|---|---|---|---|
| 1777984802 | 21.67° C | 43% | 929.6 hPa | 0 mm | 0.89 m/s, 163° | - | - |
| 1777984741 | 22.22° C | 41% | 929.6 hPa | 0 mm | 0.45 m/s, 134° | - | - |
| 1777984682 | 22.22° C | 41% | 929.7 hPa | 0 mm | 0.89 m/s, 127° | - | - |
| 1777984622 | 22.22° C | 43% | 929.5 hPa | 0 mm | 0.89 m/s, 145° | - | - |
| 1777984561 | 22.22° C | 41% | 929.8 hPa | 0 mm | 1.34 m/s, 150° | - | - |
| 1777984501 | 22.22° C | 45% | 929.7 hPa | 0 mm | 0.45 m/s, 166° | - | - |
| 1777984381 | 22.22° C | 43% | 929.8 hPa | 0 mm | 0.45 m/s, 149° | - | - |
| 1777984321 | 22.22° C | 41% | 929.6 hPa | 0 mm | 0.89 m/s, 228° | - | - |
| 1777984200 | 22.22° C | 42% | 929.6 hPa | 0 mm | 0.45 m/s, 227° | - | - |
| 1777984140 | 22.22° C | 42% | 929.7 hPa | 0 mm | 0.45 m/s, 191° | - | - |
| 1777984081 | 22.22° C | 43% | 929.7 hPa | 0 mm | 0.45 m/s, 117° | - | - |
| 1777984022 | 22.22° C | 42% | 929.5 hPa | 0 mm | 0.45 m/s, 201° | - | - |
| 1777983961 | 22.22° C | 42% | 929.6 hPa | 0 mm | 0.45 m/s, 204° | - | - |
| 1777983900 | 22.22° C | 41% | 929.6 hPa | 0 mm | 0.45 m/s, 211° | - | - |
| 1777983841 | 21.67° C | 42% | 929.9 hPa | 0 mm | 0.45 m/s, 220° | - | - |
| 1777983781 | 21.67° C | 43% | 929.6 hPa | 0 mm | 0.89 m/s, 189° | - | - |
| 1777983721 | 21.67° C | 42% | 929.6 hPa | 0 mm | 0.45 m/s, 216° | - | - |
| 1777983661 | 21.67° C | 41% | 929.8 hPa | 0 mm | 0 m/s | - | - |
| 1777983603 | 22.22° C | 41% | 930 hPa | 0 mm | 0 m/s | - | - |
| 1777983541 | 22.22° C | 42% | 929.9 hPa | 0 mm | 0.89 m/s, 210° | - | - |
| 1777983481 | 21.67° C | 41% | 929.8 hPa | 0 mm | 0.89 m/s, 203° | - | - |
| 1777983421 | 21.67° C | 43% | 929.8 hPa | 0 mm | 0.45 m/s, 227° | - | - |
| 1777983361 | 21.67° C | 45% | 930 hPa | 0 mm | 0.45 m/s, 214° | - | - |
| 1777983301 | 21.67° C | 43% | 929.8 hPa | 0 mm | 0.45 m/s, 205° | - | - |
| 1777983241 | 21.67° C | 44% | 930 hPa | 0 mm | 0.89 m/s, 189° | - | - |
* Rain since midnight (hover to see other rain measurements)
** Current wind speed in m/s (hover to see current wind gust speed)